Glendive, MT

10:21 AM MDT on October 22, 2017 (GMT -0600)
Dawson Community

Weather History for KGDV - August, 2013

Change the Weather History Date:

Saturday, August 17, 2013

  Actual Average Record
Temperature  
Mean Temperature 74 °F -  
Max Temperature 89 °F 82 °F 102 °F (1996)
Min Temperature 60 °F 55 °F 41 °F (2002)
Cooling Degree Days 10    
Growing Degree Days 24 (Base 50)    
Moisture  
Dew Point 58 °F    
Average Humidity 60    
Maximum Humidity 88    
Minimum Humidity 33    
Precipitation  
Precipitation 0.00 in - - ()
Sea Level Pressure  
Sea Level Pressure 29.91 in    
Wind  
Wind Speed 10 mph (WSW)    
Max Wind Speed 17 mph    
Max Gust Speed 21 mph    
Visibility 10 miles    
Events      
Averages and records for this station are not official NWS values.
T = Trace of Precipitation, MM = Missing Value Source: NWS Daily Summary

Daily Weather History Graph

Daily Weather History Graph

Search for Another Location

Airport or City:

Trip Planner

Search our weather history database for the weather conditions in past years. The results will help you decide how hot, cold, wet, or windy it might be!

Date:

Astronomy

Aug. 17, 2013 Rise Set
Actual Time 5:59 AM MDT 8:06 PM MDT
Civil Twilight 5:25 AM MDT 8:39 PM MDT
Nautical Twilight 4:44 AM MDT 9:20 PM MDT
Astronomical Twilight 3:58 AM MDT 10:06 PM MDT
Moon 5:30 PM MDT (8/17) 1:57 AM MDT (8/17)
Length of Visible Light 15h 13m
Length of Day
14h 07m
Waxing Gibbous, 85% of the Moon is Illuminated
Aug 17
Waxing Gibbous
Aug 20
Full
Aug 28
Last Quarter
Sep 5
New
Sep 12
First Quarter

Hourly Weather History & Observations

Time (MDT) Temp. Heat Index Dew Point Humidity Pressure Visibility Wind Dir Wind Speed Gust Speed Precip Events Conditions
12:15 AM 69.8 °F - 59.0 °F 68% 29.95 in 10.0 mi South 11.5 mph - N/A   Clear
12:35 AM 68.0 °F - 59.0 °F 73% 29.94 in 10.0 mi South 12.7 mph - N/A   Clear
12:55 AM 68.0 °F - 59.0 °F 73% 29.94 in 10.0 mi South 13.8 mph - N/A   Clear
1:15 AM 66.2 °F - 59.0 °F 78% 29.94 in 10.0 mi South 13.8 mph - N/A   Clear
1:35 AM 66.2 °F - 59.0 °F 78% 29.94 in 10.0 mi South 12.7 mph - N/A   Clear
1:55 AM 66.2 °F - 59.0 °F 78% 29.94 in 10.0 mi South 11.5 mph - N/A   Clear
2:15 AM 64.4 °F - 59.0 °F 83% 29.94 in 10.0 mi South 11.5 mph - N/A   Clear
2:35 AM 64.4 °F - 57.2 °F 77% 29.93 in 10.0 mi South 9.2 mph - N/A   Clear
2:55 AM 64.4 °F - 57.2 °F 77% 29.93 in 10.0 mi South 9.2 mph - N/A   Clear
3:15 AM 62.6 °F - 57.2 °F 82% 29.93 in 10.0 mi South 9.2 mph - N/A   Clear
3:55 AM 62.6 °F - 57.2 °F 82% 29.93 in 10.0 mi South 8.1 mph - N/A   Clear
4:15 AM 62.6 °F - 57.2 °F 82% 29.92 in 10.0 mi South 8.1 mph - N/A   Clear
4:35 AM 62.6 °F - 57.2 °F 82% 29.92 in 10.0 mi South 8.1 mph - N/A   Clear
4:55 AM 62.6 °F - 57.2 °F 82% 29.92 in 10.0 mi South 9.2 mph - N/A   Clear
5:35 AM 62.6 °F - 59.0 °F 88% 29.91 in 10.0 mi South 9.2 mph - N/A   Clear
6:15 AM 62.6 °F - 57.2 °F 82% 29.91 in 10.0 mi South 6.9 mph - N/A   Clear
6:35 AM 60.8 °F - 55.4 °F 82% 29.91 in 10.0 mi SSW 4.6 mph - N/A   Clear
6:55 AM 62.6 °F - 57.2 °F 82% 29.91 in 10.0 mi SSW 6.9 mph - N/A   Clear
7:16 AM 62.6 °F - 59.0 °F 88% 29.92 in 10.0 mi SSW 6.9 mph - N/A   Clear
7:35 AM 64.4 °F - 60.8 °F 88% 29.91 in 10.0 mi South 6.9 mph - N/A   Clear
7:55 AM 66.2 °F - 60.8 °F 83% 29.91 in 10.0 mi South 6.9 mph - N/A   Clear
8:15 AM 66.2 °F - 60.8 °F 83% 29.90 in 10.0 mi SSE 8.1 mph - N/A   Clear
8:35 AM 68.0 °F - 60.8 °F 78% 29.90 in 10.0 mi SSE 8.1 mph - N/A   Clear
8:55 AM 69.8 °F - 60.8 °F 73% 29.89 in 10.0 mi South 9.2 mph - N/A   Clear
9:15 AM 71.6 °F - 60.8 °F 69% 29.89 in 10.0 mi South 12.7 mph - N/A   Clear
9:35 AM 75.2 °F - 60.8 °F 61% 29.90 in 10.0 mi SSW 10.4 mph - N/A   Clear
9:55 AM 77.0 °F - 60.8 °F 57% 29.90 in 10.0 mi SW 6.9 mph - N/A   Clear
10:15 AM 78.8 °F - 60.8 °F 54% 29.91 in 10.0 mi SW 10.4 mph - N/A   Clear
10:35 AM 80.6 °F 81.5 °F 60.8 °F 51% 29.90 in 10.0 mi SW 5.8 mph - N/A   Clear
10:55 AM 82.4 °F 82.9 °F 60.8 °F 48% 29.90 in 10.0 mi SSW 5.8 mph - N/A   Clear
11:15 AM 84.2 °F 84.4 °F 60.8 °F 45% 29.90 in 10.0 mi SSW 6.9 mph - N/A   Clear
11:35 AM 86.0 °F 86.1 °F 60.8 °F 43% 29.89 in 10.0 mi SSW 12.7 mph - N/A   Clear
12:35 PM 87.8 °F 87.1 °F 59.0 °F 38% 29.89 in 10.0 mi WSW 12.7 mph 20.7 mph N/A   Clear
12:55 PM 87.8 °F 86.5 °F 57.2 °F 35% 29.89 in 10.0 mi West 12.7 mph - N/A   Clear
1:15 PM 89.6 °F 88.9 °F 59.0 °F 36% 29.89 in 10.0 mi WSW 9.2 mph - N/A   Clear
1:35 PM 89.6 °F 89.5 °F 60.8 °F 38% 29.88 in 10.0 mi WSW 6.9 mph - N/A   Clear
2:15 PM 89.6 °F 89.5 °F 60.8 °F 38% 29.89 in 10.0 mi WNW 11.5 mph 16.1 mph N/A   Clear
2:35 PM 87.8 °F 87.1 °F 59.0 °F 38% 29.89 in 10.0 mi NW 12.7 mph 17.3 mph N/A   Clear
2:55 PM 87.8 °F 86.5 °F 57.2 °F 35% 29.89 in 10.0 mi WNW 9.2 mph - N/A   Clear
3:15 PM 87.8 °F 87.6 °F 60.8 °F 40% 29.88 in 10.0 mi NW 11.5 mph 17.3 mph N/A   Clear
3:35 PM 87.8 °F 87.6 °F 60.8 °F 40% 29.88 in 10.0 mi NW 16.1 mph 19.6 mph N/A   Clear
3:55 PM 87.8 °F 87.6 °F 60.8 °F 40% 29.89 in 10.0 mi WNW 13.8 mph 20.7 mph N/A   Clear
4:15 PM 87.8 °F 87.1 °F 59.0 °F 38% 29.89 in 10.0 mi NNW 11.5 mph 18.4 mph N/A   Clear
4:35 PM 87.8 °F 86.5 °F 57.2 °F 35% 29.88 in 10.0 mi NNW 13.8 mph - N/A   Clear
4:55 PM 87.8 °F 86.5 °F 57.2 °F 35% 29.89 in 10.0 mi NNW 12.7 mph 19.6 mph N/A   Clear
5:15 PM 87.8 °F 86.5 °F 57.2 °F 35% 29.89 in 10.0 mi NNW 16.1 mph - N/A   Clear
5:35 PM 87.8 °F 86.1 °F 55.4 °F 33% 29.89 in 10.0 mi NNW 17.3 mph - N/A   Clear
5:55 PM 87.8 °F 86.1 °F 55.4 °F 33% 29.89 in 10.0 mi NNW 17.3 mph - N/A   Clear
6:15 PM 86.0 °F 84.5 °F 55.4 °F 35% 29.89 in 10.0 mi NNW 16.1 mph - N/A   Clear
6:35 PM 84.2 °F 83.5 °F 57.2 °F 40% 29.89 in 10.0 mi North 15.0 mph 19.6 mph N/A   Clear
6:55 PM 84.2 °F 83.5 °F 57.2 °F 40% 29.89 in 10.0 mi North 10.4 mph - N/A   Clear
7:15 PM 82.4 °F 82.0 °F 57.2 °F 42% 29.90 in 10.0 mi North 9.2 mph - N/A   Clear
7:35 PM 80.6 °F 80.8 °F 57.2 °F 45% 29.90 in 10.0 mi North 8.1 mph - N/A   Clear
8:15 PM 75.2 °F - 55.4 °F 50% 29.91 in 10.0 mi NNE 4.6 mph - N/A   Clear
8:35 PM 71.6 °F - 55.4 °F 57% 29.91 in 10.0 mi NNW 3.5 mph - N/A   Clear
8:55 PM 71.6 °F - 55.4 °F 57% 29.92 in 10.0 mi North 4.6 mph - N/A   Clear
9:15 PM 73.4 °F - 55.4 °F 53% 29.92 in 10.0 mi North 6.9 mph - N/A   Clear
9:35 PM 71.6 °F - 57.2 °F 60% 29.92 in 10.0 mi North 6.9 mph - N/A   Clear
9:55 PM 69.8 °F - 55.4 °F 60% 29.92 in 10.0 mi North 4.6 mph - N/A   Clear
10:15 PM 66.2 °F - 55.4 °F 68% 29.93 in 10.0 mi NW 5.8 mph - N/A   Clear
10:35 PM 66.2 °F - 55.4 °F 68% 29.93 in 10.0 mi WSW 4.6 mph - N/A   Clear
10:55 PM 69.8 °F - 57.2 °F 64% 29.93 in 10.0 mi West 4.6 mph - N/A   Clear
11:15 PM 66.2 °F - 57.2 °F 73% 29.93 in 10.0 mi WNW 3.5 mph - N/A   Clear
11:35 PM 66.2 °F - 55.4 °F 68% 29.94 in 9.0 mi Calm Calm - N/A   Clear
11:55 PM 62.6 °F - 55.4 °F 77% 29.94 in 10.0 mi WNW 3.5 mph - N/A   Clear